Main page
METAR-TAF:

METAR-TAF

Airports :

Koné Airport

Koné, New Caledonia

latitude: 21-03-12S, longitude: 164-50-18E, elevation: 7 m

METAR: missing

Time: 03:49 (16:49 UTC)

Forecast

The report was made 11 hours and 49 minutes ago, at 05:00 UTC
Forecast valid from 28 at 06 UTC to 29 at 06 UTC
Wind 8 kt from the East
Visibility 10 km or more
Scattered clouds at a height of 4200 ft
Probability 40% :
Temporary
from 29 at 03 UTC to 29 at 06 UTC
rain showers

TAF: NWWD 280500Z 2806/2906 09008KT 9999 SCT042 PROB40 TEMPO 2903/2906 SHRA

Weather observations and forecasts of more than 4000 airports (METAR and TAF reports).

The available stations are represented by yellow and red dots on the map.

Hover mouse over dot to see the name of the station.

Then click to see weather observations and forecasts.

To change the map : click on the green buttons with a black cross to zoom in, on the green button with a dash to zoom out, or on the green arrows for adjacent maps.


METAR-TAF: